Weather observations for the past three days for
MBS International Airport
Imperial (Metric)
Date Time (edt) Wind (mph) Vis. (mi.) Weather Sky Cond. Temperature (ºF) Relative Humidity Wind Chill (°F) Heat Index (°F) Pressure Precipitation (in)
Air Dwpt 6 hour altimeter (in) sea level (mb) 1 hr 3 hr 6 hr
Max. Min.
05 18:53 W 12 10.00 Fair CLR 57 25 29% 29.72 1006.5
05 17:53 W 16 10.00 Fair CLR 57.9 24.1 27% 29.72 1006.6
05 16:53 W 12 G 24 10.00 Fair CLR 59 24.1 26% 29.72 1006.6
05 15:53 W 13 G 22 10.00 Fair CLR 60.1 26.1 27% 29.71 1006.1
05 14:53 W 14 G 31 10.00 Fair CLR 59 28 31% 29.72 1006.4
05 13:53 W 20 G 29 10.00 Fair CLR 57.9 32 59 48.9 38% 29.7 1005.8
05 12:53 W 15 G 23 10.00 A Few Clouds FEW055 55.9 35.1 46% 29.7 1005.7
05 11:53 SW 10 G 20 10.00 Fair CLR 55 34 45% 29.72 1006.4
05 10:53 W 9 10.00 Fair CLR 52 35.1 53% 29.71 1006.2
05 09:53 NW 7 10.00 Mostly Cloudy BKN045 51.1 33.1 50% 29.7 1005.8
05 08:53 NW 10 10.00 Overcast OVC037 51.1 32 48% 29.67 1004.6
05 07:53 N 5 10.00 Mostly Cloudy BKN033 50 37.9 63 46 63% 49 29.65 1004.1
05 06:53 N 6 10.00 Partly Cloudy SCT032 SCT100 46.9 39 74% 45 29.62 1003.1
05 05:53 N 6 10.00 Fair CLR 48 41 77% 46 29.59 1002.1
05 04:53 NE 13 10.00 A Few Clouds FEW100 48.9 42.1 77% 44 29.56 1000.9
05 03:53 W 9 10.00 Overcast OVC100 57.9 46.9 67% 29.51 999.1
05 02:53 W 8 10.00 Mostly Cloudy BKN095 60.1 50 70% 29.49 998.4
05 01:53 W 16 G 24 10.00 Fair CLR 62.1 50 71.1 59 65% 29.49 998.2
05 00:53 SW 20 G 29 10.00 Partly Cloudy SCT070 64.9 50 59% 29.47 997.6
04 23:53 SW 6 10.00 A Few Clouds FEW085 FEW110 60.1 46 60% 29.45 997.2
04 22:53 SW 17 G 29 10.00 A Few Clouds FEW110 68 48 49% 29.43 996.3
04 21:53 S 10 10.00 Fair CLR 66 39.9 39% 29.43 996.5
04 20:53 S 10 10.00 Fair CLR 69.1 37.9 32% 29.42 996.1
04 19:53 SW 17 10.00 Fair CLR 71.1 37 75 71.1 29% 29.43 996.4
04 18:53 SW 20 G 32 10.00 Fair CLR 73 37 27% 29.45 997.3
04 17:53 SW 23 G 35 10.00 Fair and Breezy CLR 73.9 35.1 24% 29.46 997.6
04 16:53 W 25 G 38 10.00 Fair and Breezy CLR 73 32 22% 29.48 998.0
04 15:53 SW 23 G 40 10.00 Fair and Breezy CLR 75 30 19% 76 29.48 998.1
04 14:53 SW 29 G 41 10.00 Fair and Windy CLR 73.9 34 23% 29.49 998.4
04 13:53 SW 28 G 45 10.00 Fair and Windy CLR 73 34 73 50 24% 29.5 998.9
04 12:53 SW 22 G 38 10.00 Fair and Breezy CLR 70 41 35% 29.53 1000.0
04 11:53 SW 21 G 28 10.00 Fair and Breezy CLR 66.9 42.1 41% 29.56 1001.0
04 10:53 SW 13 10.00 Fair CLR 63 45 52% 29.59 1002.1
04 09:53 SW 15 10.00 Fair CLR 59 44.1 58% 29.6 1002.4
04 08:53 SW 14 G 25 10.00 Fair CLR 55 44.1 67% 29.61 1002.5
04 07:53 SW 12 10.00 Fair CLR 50 43 51.1 46.9 77% 46 29.62 1002.9
04 06:53 S 9 10.00 Fair CLR 46.9 41 80% 43 29.61 1002.9
04 05:53 SW 8 10.00 Fair CLR 46.9 41 80% 44 29.62 1003.1
04 04:53 SW 8 10.00 Fair CLR 48.9 41 74% 46 29.63 1003.3
04 03:53 SW 10 10.00 Fair CLR 50 41 71% 46 29.63 1003.5
04 02:53 S 12 10.00 Fair CLR 50 39.9 68% 46 29.65 1004.0
04 01:53 S 13 10.00 A Few Clouds FEW085 51.1 39.9 57 50 66% 29.67 1004.9
04 00:53 SW 7 10.00 Partly Cloudy FEW039 FEW070 SCT120 50 39.9 68% 48 29.71 1006.0
03 23:53 SW 12 10.00 Partly Cloudy SCT080 51.1 39 64% 29.71 1006.2
03 22:53 SW 14 10.00 Fair CLR 52 39 61% 29.72 1006.5
03 21:53 SW 14 10.00 Fair CLR 53.1 37.9 57% 29.72 1006.6
03 20:53 SW 21 G 32 10.00 Fair and Breezy CLR 54 37.9 55% 29.73 1006.9
03 19:53 SW 22 G 35 10.00 Fair and Breezy CLR 57 37.9 64 57 49% 29.72 1006.8
03 18:53 SW 24 G 39 10.00 Mostly Cloudy and Breezy BKN085 57.9 37.9 48% 29.73 1007.0
03 17:53 SW 21 G 33 10.00 Overcast and Breezy OVC070 57.9 36 44% 29.75 1007.5
03 16:53 W 26 G 41 10.00 A Few Clouds and Windy FEW065 63 35.1 35% 29.74 1007.1
03 15:53 W 24 G 43 10.00 Partly Cloudy and Breezy SCT065 63 37 38% 29.75 1007.7
03 14:53 SW 23 G 33 10.00 Partly Cloudy and Breezy SCT055 63 39 41% 29.77 1008.1
03 13:53 SW 22 G 31 10.00 Partly Cloudy and Breezy SCT095 60.1 35.1 60.1 43 39% 29.78 1008.8
03 12:53 SW 15 10.00 Overcast SCT060 OVC080 57 36 45% 29.82 1010.0
03 11:53 W 15 10.00 Mostly Cloudy SCT070 BKN090 55 35.1 47% 29.84 1010.8
03 10:53 SW 18 G 25 10.00 Overcast BKN075 OVC090 52 33.1 49% 29.85 1011.2
03 09:53 SW 17 G 25 10.00 Mostly Cloudy BKN095 50 33.1 52% 45 29.86 1011.2
03 08:53 SW 12 10.00 Fair CLR 46 30.9 56% 41 29.86 1011.5
03 07:53 SW 15 10.00 Fair CLR 43 28.9 43 36 58% 36 29.86 1011.6
03 06:53 SW 9 10.00 Fair CLR 37.9 27 65% 32 29.87 1011.7
03 05:53 SW 9 10.00 Fair CLR 37.9 25 60% 32 29.88 1012.1
03 04:53 S 8 10.00 Fair CLR 37.9 25 60% 33 29.9 1012.8
03 03:53 S 7 10.00 Fair CLR 36 26.1 67% 31 29.92 1013.6
03 02:53 SW 6 10.00 Fair CLR 39 26.1 60% 35 29.93 1014.0
03 01:53 SW 8 10.00 Mostly Cloudy BKN095 39 26.1 48.9 37.9 60% 34 29.95 1014.8
03 00:53 SW 7 10.00 Fair CLR 39 26.1 60% 35 29.96 1014.9
02 23:53 SW 5 10.00 Fair CLR 37.9 27 65% 35 29.96 1015.1
02 22:53 SW 6 10.00 Fair CLR 44.1 26.1 49% 41 29.97 1015.2
02 21:53 SW 6 10.00 Fair CLR 45 24.1 44% 42 29.97 1015.2
02 20:53 SW 7 10.00 Mostly Cloudy BKN090 46.9 24.1 41% 44 29.96 1014.9
02 19:53 SW 9 10.00 Partly Cloudy SCT090 48.9 21 51.1 46 33% 45 29.95 1014.8
Date Time (edt) Wind (mph) Vis. (mi.) Weather Sky Cond. Air Dwpt Max. Min. Relative Humidity Wind Chill (°F) Heat Index (°F) altimeter (in) sea level (mb) 1 hr 3 hr 6 hr
6 hour
Temperature (ºF) Pressure Precipitation (in)